Roda de Ter - l'Esquerda





Hora UTC 21:40
Temperatura 6.4 ºC
Humitat 88.0 %
Pressió 1023.9 hPa
Pluja 0.0 mm
Velocitat vent 0.0 km/h
Direcció vent NE

Dades diàries 2020-01-29



Hora UTC (hivern +1h; estiu +2h)
Temperatura (ºC) Humitat (%) Pressió (hPa) Velocitat vent (km/h) Precipitació (mm)
Hora UTC Aire Humitat Pressió Vel. Dir. Vel. Max Dir. Intent. màx 5 min.
00:00 2.3 92.0 1021.5 1.6 S 1.6 0.0
00:10 0.0
00:15 0.0
00:20 0.0
00:25 0.0
00:30 0.0
00:35 0.0
00:40 0.0
00:45 0.0
00:50 0.0
00:55 0.0
01:00 0.0
01:05 0.0
01:10 0.0
01:15 0.0
01:20 0.0
01:25 0.0
01:30 0.0
01:35 0.0
01:40 0.0
01:45 0.0
01:50 0.0
01:55 0.0
02:00 0.0
02:05 1.7 93.0 1021.4 1.6 SSW 3.2 0.0
02:10 1.7 93.0 1021.6 3.2 SSW 3.2 0.0
02:15 1.7 93.0 1021.5 3.2 SSW 3.2 0.0
02:15 1.8 93.0 1021.5 0.0 SSW 3.2 0.0
02:25 1.8 93.0 1021.4 0.0 SSW 3.2 0.0
02:30 1.8 93.0 1021.4 0.0 SSW 3.2 0.0
02:35 1.8 93.0 1021.4 0.0 SSW 3.2 0.0
02:40 1.8 93.0 1021.3 0.0 SSW 3.2 0.0
02:45 1.8 93.0 1021.3 1.6 SSW 3.2 0.0
02:50 1.7 93.0 1021.3 0.0 SSW 3.2 0.0
02:55 1.8 93.0 1021.3 0.0 SSW 1.6 0.0
03:00 1.9 93.0 1021.3 0.0 SSW 1.6 0.0
03:05 1.9 93.0 1021.2 0.0 SSW 1.6 0.0
03:10 2.1 93.0 1021.2 1.6 SSW 3.2 0.0
03:15 2.1 93.0 1021.3 1.6 SSW 3.2 0.0
03:20 2.0 93.0 1021.4 1.6 SSW 3.2 0.0
03:25 2.0 93.0 1021.3 1.6 SSW 3.2 0.0
03:30 2.1 93.0 1021.1 3.2 SSW 3.2 0.0
03:35 2.1 93.0 1021.1 0.0 SSW 3.2 0.0
03:40 2.1 93.0 1021.1 1.6 SSW 3.2 0.0
03:45 2.1 93.0 1021.2 0.0 SSW 3.2 0.0
03:50 2.1 93.0 1021.4 0.0 SSW 1.6 0.0
03:55 2.2 93.0 1021.3 0.0 SSW 1.6 0.0
04:00 2.1 93.0 1021.2 0.0 SSW 3.2 0.0
04:05 2.1 93.0 1021.3 0.0 SSW 3.2 0.0
04:10 2.1 93.0 1021.3 0.0 SSW 3.2 0.0
04:15 2.1 93.0 1021.5 3.2 SSW 3.2 0.0
04:20 2.1 93.0 1021.6 1.6 SSW 4.8 0.0
04:25 1.9 93.0 1021.6 1.6 WSW 6.4 0.0
04:30 1.9 93.0 1021.5 3.2 WSW 6.4 0.0
04:35 1.8 93.0 1021.5 1.6 WSW 4.8 0.0
04:40 1.8 93.0 1021.8 1.6 SW 4.8 0.0
04:45 1.7 93.0 1021.9 1.6 SW 4.8 0.0
04:50 1.7 93.0 1021.7 0.0 SW 3.2 0.0
04:55 1.7 93.0 1021.6 3.2 SW 3.2 0.0
05:00 1.7 93.0 1021.8 0.0 SW 4.8 0.0
05:05 1.8 93.0 1021.9 1.6 SW 4.8 0.0
05:10 1.8 93.0 1021.9 1.6 SW 3.2 0.0
05:15 1.8 93.0 1022.0 0.0 SW 3.2 0.0
05:20 1.7 93.0 1022.0 1.6 SW 3.2 0.0
05:25 1.7 93.0 1021.9 0.0 SW 3.2 0.0
05:30 1.8 93.0 1021.9 0.0 SW 3.2 0.0
05:35 1.8 93.0 1022.0 1.6 SW 3.2 0.0
05:40 1.7 93.0 1022.2 0.0 SW 3.2 0.0
05:45 1.7 93.0 1022.3 1.6 SW 3.2 0.0
05:50 1.7 93.0 1022.3 0.0 SW 3.2 0.0
05:55 1.7 93.0 1022.2 3.2 SW 3.2 0.0
06:00 1.6 94.0 1022.2 3.2 SW 4.8 0.0
06:05 1.6 94.0 1022.4 1.6 SW 4.8 0.0
06:10 1.6 93.0 1022.2 1.6 SW 4.8 0.0
06:15 1.6 94.0 1022.3 0.0 SW 4.8 0.0
06:20 1.6 94.0 1022.4 1.6 SW 3.2 0.0
06:25 1.6 94.0 1022.6 0.0 SW 3.2 0.0
06:30 1.5 94.0 1023.0 0.0 SW 3.2 0.0
06:35 1.4 93.0 1022.8 0.0 SW 3.2 0.0
06:40 1.6 94.0 1022.8 0.0 SW 1.6 0.0
06:45 1.6 94.0 1022.7 0.0 SW 3.2 0.0
06:50 1.7 94.0 1022.9 1.6 SW 3.2 0.0
06:55 1.7 94.0 1023.1 3.2 S 3.2 0.0
07:00 1.8 93.0 1023.1 3.2 S 3.2 0.0
07:05 1.7 94.0 1023.0 1.6 S 4.8 0.0
07:10 1.8 94.0 1023.1 1.6 S 4.8 0.0
07:15 1.8 94.0 1023.2 0.0 S 3.2 0.0
07:20 1.8 94.0 1023.2 0.0 S 1.6 0.0
07:25 1.9 94.0 1023.2 0.0 S 1.6 0.0
07:30 1.9 94.0 1023.3 0.0 S 1.6 0.0
07:35 1.9 94.0 1023.5 1.6 S 1.6 0.0
07:40 1.9 94.0 1023.5 0.0 S 1.6 0.0
07:45 2.0 94.0 1023.6 0.0 S 1.6 0.0
07:50 2.0 94.0 1023.6 0.0 S 1.6 0.0
07:55 2.1 94.0 1023.6 0.0 S 1.6 0.0
08:00 2.2 94.0 1023.7 0.0 S 1.6 0.0
08:05 2.3 94.0 1023.7 0.0 S 1.6 0.0
08:10 2.3 94.0 1023.8 0.0 S 1.6 0.0
08:15 2.4 94.0 1023.8 1.6 S 1.6 0.0
08:20 2.7 94.0 1023.7 0.0 S 1.6 0.0
08:25 2.6 94.0 1023.6 0.0 S 1.6 0.0
08:30 2.8 94.0 1023.7 1.6 S 1.6 0.0
08:35 2.8 94.0 1023.6 0.0 S 1.6 0.0
08:40 2.9 94.0 1023.7 0.0 S 1.6 0.0
08:45 2.9 94.0 1023.8 0.0 S 3.2 0.0
08:50 3.1 94.0 1024.0 0.0 S 3.2 0.0
08:55 3.2 94.0 1024.0 1.6 S 3.2 0.0
09:00 3.2 94.0 1024.1 1.6 S 3.2 0.0
09:05 3.2 94.0 1024.0 0.0 S 1.6 0.0
09:10 3.4 94.0 1024.0 0.0 S 1.6 0.0
09:15 3.6 94.0 1024.0 0.0 S 1.6 0.0
09:20 3.7 94.0 1024.2 0.0 S 3.2 0.0
09:25 3.9 94.0 1024.1 0.0 S 3.2 0.0
09:30 3.9 94.0 1024.2 1.6 S 4.8 0.0
09:35 3.8 94.0 1024.2 1.6 S 3.2 0.0
09:40 3.6 94.0 1024.2 0.0 S 3.2 0.0
09:45 3.7 94.0 1024.2 0.0 S 3.2 0.0
09:50 3.8 94.0 1024.2 0.0 S 3.2 0.0
09:55 3.9 94.0 1024.3 0.0 S 3.2 0.0
10:00 4.2 94.0 1024.5 0.0 S 3.2 0.0
10:05 4.3 94.0 1024.3 0.0 S 3.2 0.0
10:10 4.4 94.0 1024.5 1.6 S 3.2 0.0
10:15 4.4 94.0 1024.5 0.0 S 3.2 0.0
10:20 4.6 94.0 1024.5 1.6 S 3.2 0.0
10:25 0.0
10:30 4.4 94.0 1024.6 0.0 W 6.4 0.0
10:35 4.6 94.0 1024.6 3.2 NNW 6.4 0.0
10:40 4.4 94.0 1024.5 1.6 NNE 4.8 0.0
10:45 4.8 94.0 1024.6 1.6 NW 4.8 0.0
10:50 4.7 94.0 1024.5 0.0 WNW 4.8 0.0
10:55 4.7 94.0 1024.5 1.6 WNW 4.8 0.0
11:00 4.7 94.0 1024.6 0.0 WSW 3.2 0.0
11:05 4.7 94.0 1024.5 0.0 NNW 4.8 0.0
11:10 4.7 94.0 1024.4 0.0 NNW 4.8 0.0
11:15 4.9 94.0 1024.3 1.6 WNW 3.2 0.0
11:20 5.0 94.0 1024.2 3.2 WNW 4.8 0.0
11:25 0.0
11:30 5.1 93.0 1024.3 1.6 WNW 4.8 0.0
11:35 4.8 93.0 1024.1 3.2 N 4.8 0.0
11:40 4.9 93.0 1023.9 3.2 NNE 4.8 0.0
11:45 5.2 93.0 1023.9 0.0 NW 3.2 0.0
11:50 5.2 93.0 1024.0 3.2 W 4.8 0.0
11:55 5.6 93.0 1024.0 3.2 SW 6.4 0.0
12:00 5.6 92.0 1023.9 1.6 SW 6.4 0.0
12:05 5.7 92.0 1023.7 1.6 SW 6.4 0.0
12:10 5.9 91.0 1023.7 3.2 NW 6.4 0.0
12:15 5.8 90.0 1023.5 0.0 NW 6.4 0.0
12:20 5.7 90.0 1023.6 1.6 NE 4.8 0.0
12:25 5.7 89.0 1023.6 1.6 NNW 4.8 0.0
12:30 5.8 89.0 1023.5 3.2 NNW 6.4 0.0
12:35 5.8 89.0 1023.5 1.6 WSW 4.8 0.0
12:40 6.3 89.0 1023.5 4.8 NE 4.8 0.0
12:45 6.3 89.0 1023.4 0.0 NE 4.8 0.0
12:50 6.2 88.0 1023.2 0.0 NE 4.8 0.0
12:55 6.2 89.0 1023.2 1.6 ESE 3.2 0.0
13:00 6.8 88.0 1023.2 4.8 WSW 4.8 0.0
13:05 7.0 86.0 1023.1 0.0 WSW 4.8 0.0
13:10 7.2 86.0 1023.0 0.0 W 4.8 0.0
13:15 7.3 86.0 1022.8 3.2 WSW 4.8 0.0
13:20 7.7 84.0 1022.7 3.2 W 4.8 0.0
13:25 0.0
13:30 8.2 83.0 1022.6 0.0 W 6.4 0.0
13:35 8.4 83.0 1022.5 3.2 WNW 6.4 0.0
13:40 8.6 82.0 1022.5 4.8 W 6.4 0.0
13:45 8.9 81.0 1022.5 3.2 W 6.4 0.0
13:50 8.8 81.0 1022.4 1.6 WSW 6.4 0.0
13:55 9.1 82.0 1022.3 3.2 W 6.4 0.0
14:00 8.8 80.0 1022.1 1.6 W 4.8 0.0
14:05 9.3 79.0 1022.2 3.2 W 4.8 0.0
14:10 9.5 77.0 1022.1 1.6 WNW 4.8 0.0
14:15 9.3 78.0 1021.8 0.0 WNW 4.8 0.0
14:20 9.7 78.0 1021.9 3.2 W 6.4 0.0
14:25 0.0
14:30 10.0 77.0 1022.0 1.6 WSW 6.4 0.0
14:35 10.3 76.0 1022.0 1.6 WSW 6.4 0.0
14:40 10.4 76.0 1021.8 0.0 WSW 4.8 0.0
14:45 10.3 75.0 1021.9 0.0 WSW 4.8 0.0
14:50 10.2 74.0 1021.9 3.2 WSW 3.2 0.0
14:55 10.3 75.0 1021.8 1.6 WSW 4.8 0.0
15:00 10.4 75.0 1021.9 1.6 W 4.8 0.0
15:05 10.6 74.0 1022.0 1.6 W 4.8 0.0
15:10 11.0 73.0 1022.0 1.6 W 4.8 0.0
15:15 11.1 74.0 1022.0 0.0 W 4.8 0.0
15:20 11.3 72.0 1022.0 1.6 WSW 4.8 0.0
15:25 0.0
15:30 11.7 71.0 1021.9 4.8 WSW 6.4 0.0
15:35 11.7 71.0 1022.1 3.2 WSW 8.0 0.0
15:40 11.7 70.0 1022.0 3.2 W 8.0 0.0
15:45 11.8 70.0 1022.2 1.6 WSW 6.4 0.0
15:50 12.0 69.0 1022.2 6.4 SW 8.0 0.0
15:55 11.9 68.0 1022.2 1.6 WSW 8.0 0.0
16:00 12.0 69.0 1022.2 4.8 SW 4.8 0.0
16:05 11.8 68.0 1022.2 1.6 W 6.4 0.0
16:10 11.8 67.0 1022.2 1.6 W 4.8 0.0
16:15 11.6 68.0 1022.2 1.6 W 4.8 0.0
16:20 11.5 69.0 1022.3 1.6 W 4.8 0.0
16:25 0.0
16:30 11.3 68.0 1022.2 0.0 W 3.2 0.0
16:35 11.2 69.0 1022.3 1.6 W 3.2 0.0
16:40 11.1 70.0 1022.5 1.6 WNW 3.2 0.0
16:45 10.9 70.0 1022.5 0.0 NW 3.2 0.0
16:50 10.8 72.0 1022.6 1.6 NW 3.2 0.0
16:55 10.6 72.0 1022.6 0.0 NW 3.2 0.0
17:00 10.4 73.0 1022.6 0.0 NW 0.0 0.0
17:05 10.4 73.0 1022.6 0.0 NW 0.0 0.0
17:10 10.2 74.0 1022.8 0.0 NW 1.6 0.0
17:15 9.9 75.0 1022.8 1.6 NW 3.2 0.0
17:20 9.6 75.0 1022.9 3.2 NW 3.2 0.0
17:25 9.6 75.0 1023.0 1.6 NW 3.2 0.0
17:30 9.3 76.0 1022.9 1.6 SSW 4.8 0.0
17:35 9.2 77.0 1023.1 3.2 SSW 3.2 0.0
17:40 8.8 77.0 1023.1 1.6 SSE 4.8 0.0
17:45 8.1 79.0 1023.0 3.2 SE 4.8 0.0
17:50 8.1 81.0 1023.1 0.0 SE 3.2 0.0
17:55 7.8 82.0 1023.1 3.2 SE 3.2 0.0
18:00 7.8 82.0 1023.3 1.6 SE 3.2 0.0
18:05 7.7 82.0 1023.2 3.2 E 4.8 0.0
18:10 7.4 83.0 1023.2 4.8 NE 6.4 0.0
18:15 7.3 84.0 1023.2 1.6 NE 6.4 0.0
18:20 7.2 85.0 1023.2 1.6 NE 6.4 0.0
18:25 0.0
18:30 7.0 85.0 1023.2 1.6 NE 4.8 0.0
18:35 6.9 85.0 1023.3 0.0 NE 3.2 0.0
18:40 6.9 86.0 1023.3 0.0 NE 3.2 0.0
18:45 6.8 86.0 1023.4 1.6 NE 3.2 0.0
18:50 6.6 86.0 1023.5 3.2 NE 4.8 0.0
18:55 6.6 86.0 1023.6 0.0 NE 3.2 0.0
19:00 6.3 86.0 1023.5 1.6 NE 4.8 0.0
19:05 6.2 87.0 1023.7 1.6 NE 4.8 0.0
19:10 6.1 87.0 1023.7 0.0 NE 3.2 0.0
19:15 5.9 87.0 1023.7 3.2 NE 3.2 0.0
19:20 5.8 87.0 1023.7 3.2 NE 3.2 0.0
19:25 0.0
19:30 5.4 88.0 1023.7 3.2 NE 4.8 0.0
19:35 5.4 88.0 1023.9 4.8 NE 4.8 0.0
19:40 5.4 89.0 1024.0 1.6 NE 6.4 0.0
19:45 5.6 89.0 1024.0 1.6 NE 6.4 0.0
19:50 5.7 89.0 1023.8 0.0 NE 4.8 0.0
19:55 5.6 89.0 1024.0 0.0 NE 3.2 0.0
20:00 5.6 89.0 1024.0 0.0 NE 3.2 0.0
20:05 5.7 89.0 1024.0 0.0 NE 3.2 0.0
20:10 5.7 88.0 1024.0 1.6 NE 3.2 0.0
20:15 5.7 89.0 1024.1 3.2 NE 3.2 0.0
20:20 5.7 89.0 1024.1 1.6 NE 3.2 0.0
20:25 0.0
20:30 5.9 89.0 1024.2 1.6 NE 3.2 0.0
20:35 5.8 89.0 1024.2 1.6 NE 3.2 0.0
20:40 5.8 89.0 1024.1 3.2 NE 3.2 0.0
20:45 5.8 89.0 1024.1 3.2 NE 4.8 0.0
20:50 5.9 89.0 1024.0 0.0 NE 3.2 0.0
20:55 6.1 89.0 1023.9 0.0 NE 3.2 0.0
21:00 6.2 89.0 1023.9 0.0 NE 1.6 0.0
21:05 6.2 89.0 1024.0 0.0 NE 1.6 0.0
21:10 6.2 89.0 1024.0 0.0 NE 1.6 0.0
21:15 6.2 88.0 1024.0 1.6 NE 1.6 0.0
21:20 6.3 88.0 1024.0 0.0 NE 1.6 0.0
21:25 0.0
21:30 6.4 88.0 1023.9 0.0 NE 1.6 0.0
21:35 6.4 88.0 1024.0 1.6 NE 1.6 0.0
21:40 6.4 88.0 1023.9 0.0 NE 1.6 0.0
Màxima 12.0 94.0 1024.6 6.4 SW 8.0 0.0
Mínima 1.4 67.0 1021.1
Total 0.0